DW4212 Weather Reports


Display with metric or nautical units.
time (UTC)temp
F
wind
direction
speed
MPH
gust
MPH
rain 1hr
in
rain 24hr
in
rain mn
in
humidity
%
barometer
mb
20260508022926 43 121 0.0 0.0 0.00 1.10 0.00 91 1012.0
20260508021914 43 121 0.0 0.0 0.00 1.10 0.00 90 1012.1
20260508020923 43 121 0.0 0.0 0.00 1.10 0.00 91 1012.4
20260508015928 43 121 0.0 0.0 0.00 1.10 0.00 90 1012.4
20260508014915 43 121 0.0 0.0 0.00 1.10 0.00 90 1012.4
20260508013925 43 121 0.0 0.0 0.00 1.10 0.00 90 1012.5
20260508012925 43 121 0.0 0.0 0.00 1.10 0.00 90 1012.5
20260508011919 43 121 0.0 0.0 0.00 1.10 0.00 90 1012.6
20260508010929 43 121 0.0 0.0 0.00 1.10 0.00 90 1012.7
20260508005911 43 121 0.0 0.0 0.00 1.10 0.00 90 1012.8
20260508004921 43 121 0.0 0.0 0.00 1.10 0.00 90 1013.0
20260508002924 43 121 0.0 0.0 0.00 1.10 0.00 89 1013.4
20260508001913 44 121 0.0 0.0 0.00 1.10 0.00 89 1013.4
20260508000922 44 121 0.0 0.0 0.00 1.10 0.00 89 1013.4
20260507235923 44 121 0.0 0.0 0.00 1.10 0.22 89 1013.6
20260507234917 44 121 0.0 0.0 0.00 1.10 0.22 88 1013.7
20260507233927 44 121 0.0 0.0 0.00 1.10 0.22 88 1013.7
20260507232929 44 121 0.0 0.0 0.00 1.10 0.22 88 1013.7
20260507230928 44 121 0.0 0.0 0.00 1.10 0.22 87 1014.1
20260507225911 44 121 0.0 0.0 0.00 1.10 0.22 87 1014.0
20260507224920 45 121 0.0 0.0 0.00 1.10 0.22 87 1014.1
20260507223910 45 121 0.0 0.0 0.00 1.10 0.22 87 1014.0
20260507222914 45 121 0.0 0.0 0.00 1.10 0.22 87 1014.0
20260507221926 45 121 0.0 0.0 0.00 1.10 0.22 86 1014.0
20260507220922 45 121 0.0 0.0 0.00 1.10 0.22 86 1014.1
20260507215926 45 121 0.0 0.0 0.00 1.10 0.22 85 1014.0
20260507214916 45 121 0.0 0.0 0.00 1.10 0.22 85 1014.1
20260507213930 46 121 0.0 0.0 0.00 1.10 0.22 85 1013.8
20260507212914 46 121 0.0 0.0 0.00 1.10 0.22 85 1013.8
20260507210920 46 121 0.0 0.0 0.00 1.10 0.22 84 1013.8
20260507205928 46 121 0.0 0.0 0.00 1.10 0.22 84 1013.4
20260507204935 47 121 0.0 0.0 0.00 1.10 0.22 84 1013.3
20260507202935 47 121 0.0 0.0 0.00 1.10 0.22 82 1013.0
20260507200940 48 121 0.0 0.0 0.00 1.10 0.22 80 1012.8
20260507195944 48 121 0.0 0.0 0.00 1.10 0.22 80 1012.7
20260507194950 49 121 0.0 0.0 0.00 1.10 0.22 79 1012.6
20260507193940 50 121 0.0 0.0 0.00 1.10 0.22 79 1012.6
20260507192947 50 121 0.0 0.0 0.00 1.10 0.22 78 1012.5
20260507191933 51 121 0.0 0.0 0.00 1.10 0.22 77 1012.3
20260507190941 52 121 0.0 0.0 0.00 1.10 0.22 75 1012.3
20260507185943 53 121 0.0 0.0 0.00 1.10 0.22 75 1012.1
20260507184932 53 121 0.0 0.0 0.00 1.10 0.22 74 1012.0
20260507183934 53 121 0.0 0.0 0.00 1.10 0.22 75 1011.9
20260507182939 53 121 0.0 0.0 0.00 1.10 0.22 76 1011.7
20260507181947 53 121 0.0 0.0 0.00 1.10 0.22 76 1011.8
20260507180936 52 121 0.0 1.0 0.00 1.10 0.22 76 1011.7
20260507175940 52 124 0.0 1.0 0.00 1.10 0.22 77 1011.7
20260507174949 51 126 0.0 0.0 0.00 1.10 0.22 78 1011.7
20260507173942 51 127 0.0 0.0 0.00 1.10 0.22 80 1011.8
20260507172946 51 127 0.0 3.0 0.00 1.10 0.22 81 1011.7
20260507171933 51 130 0.0 0.0 0.00 1.10 0.22 82 1011.9
20260507170942 51 132 0.0 0.0 0.00 1.10 0.22 82 1011.9
20260507165943 52 137 0.0 0.0 0.00 1.10 0.22 82 1012.0
20260507163933 52 138 0.0 0.0 0.00 1.10 0.22 80 1012.0
20260507162936 52 138 0.0 0.0 0.00 1.10 0.22 81 1012.1
20260507161942 51 138 0.0 0.0 0.00 1.10 0.22 81 1011.9
20260507160940 52 138 0.0 0.0 0.00 1.10 0.22 86 1011.9
20260507155950 51 138 0.0 0.0 0.00 1.10 0.22 85 1011.9
20260507154943 51 138 0.0 0.0 0.08 1.10 0.22 87 1012.0
20260507153952 51 138 0.0 0.0 0.39 1.10 0.22 88 1012.0
20260507152951 51 138 0.0 0.0 0.63 1.10 0.22 89 1011.9
20260507151939 50 137 0.0 0.0 0.79 1.10 0.22 89 1012.0
20260507150949 50 140 0.0 0.0 0.79 1.10 0.22 89 1012.1
20260507145935 49 140 0.0 1.0 0.79 1.10 0.22 89 1011.9
20260507144945 49 165 0.0 0.0 0.71 1.02 0.20 86 1012.3
20260507143913 50 165 0.0 0.0 0.39 0.71 0.14 86 1012.6
20260507141918 50 171 1.0 10.0 0.00 0.31 0.06 83 1012.7
20260507140929 51 169 4.0 12.0 0.00 0.31 0.06 80 1012.6
20260507135912 52 209 1.0 11.0 0.00 0.31 0.06 77 1012.4
20260507134920 52 153 0.0 4.0 0.00 0.31 0.06 76 1012.2
20260507133911 52 69 0.0 5.0 0.00 0.31 0.06 73 1012.1
20260507132928 54 140 0.0 9.0 0.00 0.31 0.06 70 1012.0
20260507131916 57 136 1.0 7.0 0.00 0.31 0.06 69 1011.8
20260507130927 58 172 0.0 3.0 0.00 0.31 0.06 71 1011.7
20260507125915 58 172 0.0 3.0 0.00 0.31 0.06 70 1011.7
20260507124925 58 175 0.0 3.0 0.00 0.31 0.06 69 1011.8
20260507123915 58 174 0.0 7.0 0.00 0.31 0.06 67 1011.5
20260507122920 59 169 1.0 8.0 0.00 0.31 0.06 64 1011.3
20260507121912 61 169 0.0 7.0 0.00 0.31 0.06 63 1011.6
20260507120920 61 162 1.0 6.0 0.00 0.31 0.06 62 1011.4
20260507115924 61 172 0.0 7.0 0.04 0.31 0.06 63 1011.5
20260507114914 60 183 0.0 8.0 0.04 0.31 0.06 62 1011.6
20260507113928 59 171 0.0 8.0 0.04 0.31 0.06 65 1011.7
20260507112911 58 146 0.0 8.0 0.04 0.31 0.06 68 1012.1
20260507111920 57 121 0.0 2.0 0.04 0.31 0.06 74 1012.4
20260507110910 56 123 1.0 5.0 0.04 0.31 0.06 75 1012.4
20260507105919 56 122 0.0 4.0 0.00 0.28 0.06 74 1012.5
20260507104929 56 122 0.0 4.0 0.00 0.28 0.06 77 1012.6
20260507103918 56 122 0.0 3.0 0.00 0.28 0.06 78 1012.7
20260507102923 56 122 0.0 3.0 0.00 0.28 0.06 78 1012.8
20260507101912 54 122 0.0 7.0 0.00 0.28 0.06 82 1012.8
20260507100921 53 65 0.0 0.0 0.00 0.28 0.06 86 1013.0
20260507095926 51 65 0.0 0.0 0.00 0.28 0.06 86 1012.9
20260507094920 51 65 0.0 0.0 0.00 0.28 0.06 86 1013.0
20260507093930 51 65 0.0 0.0 0.00 0.28 0.06 87 1013.0
20260507092911 51 65 0.0 0.0 0.00 0.28 0.06 88 1012.9
20260507091921 50 65 0.0 0.0 0.00 0.28 0.06 89 1012.9
20260507090915 50 65 0.0 0.0 0.00 0.28 0.06 88 1012.8
20260507085918 50 65 0.0 0.0 0.00 0.31 0.06 89 1012.9
20260507084928 49 65 0.0 0.0 0.00 0.31 0.06 88 1012.8
20260507083919 50 65 0.0 0.0 0.00 0.31 0.06 89 1012.8
20260507082927 49 65 0.0 0.0 0.08 0.31 0.06 89 1012.7
20260507081916 49 65 0.0 0.0 0.08 0.31 0.06 89 1012.7
20260507080926 49 65 0.0 0.0 0.08 0.31 0.06 88 1012.7
20260507075911 49 65 0.0 0.0 0.08 0.31 0.06 88 1012.6
20260507074925 49 65 0.0 3.0 0.12 0.31 0.06 87 1012.5
20260507073916 49 65 0.0 3.0 0.28 0.31 0.06 86 1012.2
20260507072920 49 65 0.0 0.0 0.20 0.24 0.04 85 1012.6
20260507071911 49 65 0.0 0.0 0.20 0.24 0.04 85 1012.5
20260507070918 49 65 0.0 0.0 0.20 0.24 0.04 84 1012.5
20260507065922 49 65 0.0 0.0 0.20 0.24 0.04 83 1012.4
20260507064927 49 65 0.0 0.0 0.16 0.20 0.03 82 1012.4
20260507063924 49 65 0.0 0.0 0.00 0.04 0.00 81 1012.4
20260507062912 49 65 0.0 0.0 0.00 0.04 0.00 81 1012.3
20260507061921 49 65 0.0 0.0 0.00 0.04 0.00 81 1012.3
20260507060912 49 65 0.0 0.0 0.00 0.04 0.00 81 1012.2
20260507055919 49 65 0.0 0.0 0.00 0.04 0.00 80 1012.0
20260507053918 49 65 0.0 0.0 0.00 0.04 0.00 80 1011.9
20260507052928 49 65 0.0 0.0 0.00 0.04 0.00 79 1011.8
20260507051922 49 65 0.0 0.0 0.00 0.04 0.00 79 1011.8
20260507050912 49 65 0.0 0.0 0.00 0.04 0.00 79 1011.8
20260507045916 49 65 0.0 0.0 0.00 0.04 0.00 79 1011.7
20260507044926 49 65 0.0 0.0 0.00 0.04 0.00 79 1011.9
20260507043919 49 65 0.0 0.0 0.00 0.04 0.00 78 1011.9
20260507042923 49 65 0.0 3.0 0.00 0.04 0.00 77 1011.9
20260507041930 49 65 0.0 0.0 0.00 0.04 0.00 77 1011.9
20260507040918 49 65 0.0 0.0 0.00 0.04 0.00 77 1012.0
20260507035924 49 65 0.0 0.0 0.00 0.04 0.00 76 1012.0
20260507034914 49 65 0.0 0.0 0.00 0.04 0.00 76 1012.0
20260507033925 49 65 0.0 0.0 0.00 0.04 0.00 76 1012.1
20260507032911 49 65 0.0 0.0 0.00 0.04 0.00 76 1012.1
20260507031921 49 65 0.0 0.0 0.00 0.04 0.00 75 1012.1
20260507030912 49 65 0.0 0.0 0.00 0.04 0.00 75 1012.2
20260507025916 49 65 0.0 0.0 0.00 0.04 0.00 75 1012.2
20260507024910 49 65 0.0 0.0 0.00 0.04 0.00 76 1012.2
20260507023919 49 65 0.0 0.0 0.00 0.04 0.00 76 1012.2